User: anonymous   Login
Location: Goettingen
(51.5300°N, 9.9433°E)
Time: 07:03:16
(UTC+02:00)
Language:

ISS - Orbit

View from above orbital plane
View from above orbital plane
View from above satellite
View from above satellite

Ground track
Ground track

The orbit data is extracted from the following two-line orbital elements,

1 25544U 98067A   21125.65115462  .00001264  00000-0  31118-4 0  9992
2 25544  51.6432 193.1161 0002704 323.3863 134.4030 15.48981648282007
Epoch (UTC): 05 May 2021 15:37:39
Eccentricity: 0.0002704
inclination: 51.6432°
perigee height: 418 km
apogee height: 421 km
right ascension of ascending node: 193.1161°
argument of perigee: 323.3863°
revolutions per day: 15.48981648
mean anomaly at epoch: 134.4030°
orbit number at epoch: 28200

The dashed part of the orbit path shows where the satellite is in the earth's shadow,  

DLR